This demonstration page uses our WeatherBlox Daily Observations layout. Learn more.

Left ArrowRight Arrow

40.92945, -100.16068

Hourly Observations for July 25, 2020

Temp ( °F °C ) Dew Point ( °F °C ) Humidity (%) Winds ( mph kmh ) Pressure ( in mb ) Visibility ( mi km ) Precip ( " mm )
12:15 am 00:15 Cloudy 80 26.9 70 21.2 71 71 S 14 22 29.84 1011 10 16.0934 0 0
12:35 am 00:35 Cloudy 79 26.2 68 19.9 68 68 WNW 20 31 29.89 1012 10 16.0934 0 0
12:55 am 00:55 Cloudy 76 24.7 67 19.5 73 73 Calm 29.88 1012 10 16.0934 0 0
1:15 am 01:15 Cloudy with Nearby Thunderstorms 75 24.1 69 20.5 80 80 SE 6 9 29.87 1011 10 16.0934 0 0
1:35 am 01:35 Mostly Cloudy 76 24.5 70 21.1 81 81 SSE 13 20 29.86 1011 10 16.0934 0 0
1:55 am 01:55 Mostly Cloudy 76 24.5 71 21.5 83 83 SSE 16 26 29.85 1011 10 16.0934 0 0
2:15 am 02:15 Partly Cloudy 76 24.7 71 21.4 82 82 SSE 20 31 29.83 1010 10 16.0934 0 0
2:35 am 02:35 Clear 76 24.7 70 21.2 81 81 S 20 31 29.83 1010 10 16.0934 0 0
2:55 am 02:55 Clear 76 24.5 70 21.2 82 82 S 15 24 29.82 1010 10 16.0934 0 0
3:15 am 03:15 Clear 76 24.5 70 21 81 81 SSE 13 20 29.82 1010 10 16.0934 0 0
3:35 am 03:35 Clear 76 24.5 70 21 81 81 S 12 19 29.82 1010 10 16.0934 0 0
3:55 am 03:55 Clear 76 24.5 70 20.9 80 80 S 12 19 29.82 1010 10 16.0934 0 0
4:15 am 04:15 Clear 76 24.6 69 20.7 79 79 S 14 22 29.82 1010 10 16.0934 0 0
4:35 am 04:35 Clear 76 24.2 69 20.7 81 81 S 10 17 29.83 1010 10 16.0934 0 0
4:55 am 04:55 Clear 75 23.9 69 20.7 82 82 SSE 12 19 29.82 1010 10 16.0934 0 0
5:15 am 05:15 Clear 75 23.7 69 20.6 83 83 SSE 12 19 29.82 1010 10 16.0934 0 0
5:35 am 05:35 Clear 74 23.6 69 20.6 83 83 SSE 10 17 29.82 1010 10 16.0934 0 0
5:55 am 05:55 Clear 74 23.6 69 20.5 83 83 SSE 13 20 29.82 1010 10 16.0934 0 0
6:15 am 06:15 Clear 74 23.5 69 20.5 83 83 S 10 17 29.82 1010 10 16.0934 0 0
6:35 am 06:35 Sunny 74 23.2 69 20.4 84 84 S 9 15 29.84 1010 10 16.0934 0 0
6:55 am 06:55 Sunny 74 23.4 69 20.3 83 83 S 14 22 29.83 1010 10 16.0934 0 0
7:15 am 07:15 Sunny 74 23.6 69 20.3 82 82 S 15 24 29.83 1010 10 16.0934 0 0
7:35 am 07:35 Sunny 74 23.6 68 20.2 81 81 S 18 30 29.82 1010 10 16.0934 0 0
7:55 am 07:55 Sunny 76 24.5 69 20.3 78 78 S 18 30 29.81 1010 10 16.0934 0 0
8:15 am 08:15 Sunny 77 25.1 69 20.3 75 75 S 21 33 29.81 1009 10 16.0934 0 0
8:35 am 08:35 Sunny 78 25.6 69 20.5 73 73 S 21 33 29.82 1010 10 16.0934 0 0
8:55 am 08:55 Sunny 77 25.2 68 20.2 74 74 SSW 24 39 29.81 1009 10 16.0934 0 0
9:15 am 09:15 Sunny 79 26.2 69 20.6 71 71 SSW 23 37 29.8 1009 10 16.0934 0 0
9:35 am 09:35 Sunny 80 26.6 69 20.5 69 69 SSW 21 33 29.81 1009 10 16.0934 0 0
9:55 am 09:55 Sunny 82 27.6 69 20.8 67 67 SSW 20 31 29.79 1009 10 16.0934 0 0
10:15 am 10:15 Sunny 83 28.1 69 20.5 63 63 SSW 21 33 29.79 1009 10 16.0934 0 0
10:35 am 10:35 Sunny 84 28.9 69 20.5 61 61 SSW 16 26 29.79 1009 10 16.0934 0 0
10:55 am 10:55 Sunny 85 29.4 69 20.8 60 60 SSW 14 22 29.79 1009 10 16.0934 0 0
11:15 am 11:15 Sunny 86 30 69 20.7 57 57 SSW 15 24 29.79 1009 10 16.0934 0 0
11:35 am 11:35 Sunny 87 30.4 69 20.7 56 56 SSW 15 24 29.78 1008 10 16.0934 0 0
11:55 am 11:55 Sunny 87 30.8 69 20.6 55 55 S 12 19 29.78 1009 10 16.0934 0 0
12:15 pm 12:15 Sunny 89 31.6 70 21.1 54 54 S 12 19 29.77 1008 10 16.0934 0 0
12:35 pm 12:35 Sunny 90 32.2 69 20.8 51 51 S 12 19 29.76 1008 10 16.0934 0 0
12:55 pm 12:55 Sunny 91 32.6 69 20.6 49 49 S 16 26 29.76 1008 10 16.0934 0 0
1:15 pm 13:15 Sunny 91 33 69 20.4 47 47 SSW 15 24 29.76 1008 10 16.0934 0 0
1:35 pm 13:35 Sunny 93 33.8 70 21 47 47 S 15 24 29.74 1007 10 16.0934 0 0
1:55 pm 13:55 Sunny 93 34.1 69 20.7 45 45 S 18 30 29.74 1007 10 16.0934 0 0
2:15 pm 14:15 Sunny 93 33.9 69 20.7 46 46 S 16 26 29.73 1007 10 16.0934 0 0
2:35 pm 14:35 Sunny 94 34.2 69 20.7 45 45 S 15 24 29.73 1007 10 16.0934 0 0
2:55 pm 14:55 Partly Cloudy 93 33.8 70 21 47 47 SSE 16 26 29.72 1006 10 16.0934 0 0
3:15 pm 15:15 Partly Cloudy 95 34.8 70 21.2 45 45 SSE 17 28 29.71 1006 10 16.0934 0 0
3:35 pm 15:35 Partly Cloudy 95 35.1 70 21.3 45 45 SSW 14 22 29.71 1006 10 16.0934 0 0
3:55 pm 15:55 Partly Cloudy 95 35.1 70 21.2 44 44 SSE 16 26 29.71 1006 10 16.0934 0 0
4:15 pm 16:15 Partly Cloudy 97 36 72 22 44 44 S 14 22 29.69 1006 10 16.0934 0 0
4:35 pm 16:35 Sunny 96 35.6 71 21.5 44 44 S 16 26 29.69 1005 10 16.0934 0 0
4:55 pm 16:55 Sunny 97 35.9 70 21.2 42 42 SSE 17 28 29.68 1005 10 16.0934 0 0
5:15 pm 17:15 Sunny 96 35.8 70 21.1 42 42 SSE 18 30 29.68 1005 10 16.0934 0 0
5:35 pm 17:35 Sunny 96 35.6 70 21.1 43 43 S 16 26 29.68 1005 10 16.0934 0 0
5:55 pm 17:55 Sunny 96 35.5 69 20.8 42 42 SSE 18 30 29.68 1005 10 16.0934 0 0
6:15 pm 18:15 Sunny 94 34.2 70 21 46 46 S 15 24 29.69 1005 10 16.0934 0 0
6:35 pm 18:35 Sunny 94 34.7 71 21.4 46 46 SSE 14 22 29.68 1005 10 16.0934 0 0
6:55 pm 18:55 Sunny 91 32.9 73 22.5 54 54 SSE 15 24 29.7 1006 10 16.0934 0 0
7:15 pm 19:15 Sunny 90 32.2 72 22.1 55 55 SSE 15 24 29.69 1005 10 16.0934 0 0
7:35 pm 19:35 Sunny 88 31.3 72 22.3 59 59 SSE 13 20 29.71 1006 10 16.0934 0 0
7:55 pm 19:55 Sunny 88 31 73 22.5 61 61 SSE 10 17 29.72 1006 10 16.0934 0 0
8:15 pm 20:15 Sunny 87 30.4 73 22.5 63 63 SSE 13 20 29.72 1006 10 16.0934 0 0
8:35 pm 20:35 Sunny 86 30 72 22.1 63 63 SSE 17 28 29.7 1006 10 16.0934 0 0
8:55 pm 20:55 Sunny 85 29.5 72 22 64 64 SSE 16 26 29.71 1006 10 16.0934 0 0
9:15 pm 21:15 Clear 84 29.1 72 22 66 66 SSE 14 22 29.73 1007 10 16.0934 0 0
9:35 pm 21:35 Clear 84 28.7 71 21.7 66 66 SSE 13 20 29.75 1007 10 16.0934 0 0
9:55 pm 21:55 Clear 83 28.5 71 21.5 66 66 SSE 9 15 29.78 1009 10 16.0934 0 0
10:15 pm 22:15 Clear 83 28.4 71 21.5 66 66 SSE 9 15 29.78 1009 10 16.0934 0 0
10:35 pm 22:35 Partly Cloudy 82 27.9 71 21.5 68 68 SW 8 13 29.82 1010 10 16.0934 0 0
10:55 pm 22:55 Cloudy with Nearby Thunderstorms 83 28.1 70 21 65 65 W 12 19 29.85 1011 10 16.0934 0 0
11:15 pm 23:15 Cloudy with Nearby Thunderstorms 80 26.9 69 20.7 69 69 NNW 16 26 29.87 1012 10 16.0934 0 0
11:35 pm 23:35 Cloudy with Thunderstorms 76 24.3 68 19.8 76 76 N 14 22 29.91 1013 10 16.0934 0 0
11:55 pm 23:55 Cloudy with Nearby Thunderstorms 73 23 68 19.8 82 82 N 10 17 29.94 1014 10 16.0934 0 0

Powered by AerisWeather